Wind_Speed
19 19 18 16 14 11 9 8 8 7 7 8 7 7 7 8 8 5 6 4 7 13 9 11 7 5 6 3 4 3 3 2 3 4 2 3 1 3 5 8 1 2 5 7 22
19 19 19 17 16 14 11 9 8 7 8 7 6 6 6 8 6 8 9 10 10 12 8 10 5 7 1 2 2 3 2 3 1 3 2 4 0 4 2 4 3 4 9 20 23
18 18 18 18 17 16 15 11 8 7 7 6 5 5 5 6 2 7 2 17 15 10 7 5 3 4 1 1 2 3 2 1 3 3 3 5 2 3 7 3 4 6 10 13 18
19 19 19 18 17 16 16 13 9 8 6 4 3 4 3 2 4 2 2 13 15 12 6 4 2 2 2 2 1 2 4 2 3 2 2 3 2 4 3 1 3 14 14 12 12
19 19 18 18 19 18 16 16 9 6 6 3 1 1 1 1 7 2 3 14 17 15 7 4 2 3 1 1 1 2 1 3 2 4 4 4 2 2 7 2 10 11 11 11 10
20 20 19 19 19 20 16 16 9 5 4 1 1 1 1 1 3 2 2 19 17 13 7 4 5 3 4 3 3 3 3 2 2 2 2 5 3 1 3 11 10 11 10 7 8
21 20 20 20 20 20 17 17 8 3 0 2 2 2 1 7 3 3 7 14 14 13 4 6 3 3 3 4 2 2 2 2 2 3 2 1 4 4 3 10 12 10 8 7 7
23 22 21 21 21 20 18 16 6 1 2 3 4 2 6 2 2 8 9 6 11 10 7 1 5 6 4 3 4 3 2 1 3 6 0 5 4 5 5 10 8 10 9 9 9
24 23 22 22 22 21 20 10 2 3 5 7 2 2 6 3 5 10 9 5 9 9 6 2 4 4 2 4 3 4 2 2 1 7 4 2 4 5 5 8 10 10 10 11 9
25 23 23 24 23 22 17 2 5 6 7 3 0 1 3 3 4 6 13 7 3 5 1 3 5 4 3 4 4 3 2 4 4 5 5 4 8 6 5 5 7 8 11 11 10
27 24 25 25 24 21 7 5 2 1 3 7 4 2 4 3 2 4 7 6 3 5 3 3 4 7 8 6 0 1 3 5 2 5 6 8 6 10 7 6 8 8 7 12 13
27 28 27 24 24 13 5 3 4 2 5 8 4 6 7 1 4 3 13 5 3 2 1 5 6 5 4 5 3 4 1 6 1 1 3 1 11 9 7 7 9 10 8 9 6
30 32 27 26 14 3 3 5 6 8 1 6 5 4 5 10 6 6 9 5 4 3 4 6 5 7 5 4 4 4 4 3 2 3 2 3 8 6 5 8 6 7 7 8 11
34 32 26 24 1 5 5 7 7 4 4 5 3 5 4 5 3 6 9 6 1 10 6 5 4 4 4 5 7 4 7 7 4 1 1 1 4 6 3 6 9 9 9 11 11
40 31 27 16 9 3 5 6 4 3 3 1 3 6 1 7 5 1 4 5 8 5 6 7 4 5 5 7 8 7 7 5 3 1 4 2 1 6 3 5 7 11 9 9 11
42 35 23 5 7 6 4 5 5 5 3 2 5 5 5 2 2 3 3 5 4 4 2 7 1 5 7 4 8 2 6 7 5 3 2 3 3 6 3 6 4 5 9 9 9
41 28 10 8 3 7 6 2 5 3 4 4 1 4 3 4 3 3 6 7 6 4 4 4 4 4 4 5 3 6 6 4 3 3 5 3 3 9 6 7 5 8 11 11 9
42 11 4 5 7 7 2 5 2 3 5 4 3 2 6 5 3 4 6 4 3 5 2 5 6 8 5 9 8 6 8 6 5 3 4 1 5 5 4 6 2 4 9 9 9
28 7 4 8 9 1 5 3 6 5 3 6 6 3 1 3 4 4 7 8 9 9 7 5 6 3 4 4 9 5 4 5 6 3 3 3 6 8 1 3 4 5 6 9 9
15 6 10 7 8 1 5 4 3 4 4 3 2 4 1 3 4 6 8 4 5 12 7 6 4 3 1 4 4 6 7 4 2 1 3 4 5 5 2 4 5 5 6 7 7
6 3 12 6 6 5 3 5 5 6 4 1 1 3 4 3 6 4 4 5 7 6 8 6 4 8 0 4 9 2 1 6 5 4 5 1 6 6 7 7 8 8 8 7 8
5 3 6 5 4 1 1 2 5 5 3 5 3 7 6 2 3 5 6 4 3 7 9 7 5 6 11 3 4 3 7 6 5 4 2 3 6 4 7 7 5 7 8 8 7
2 2 5 1 3 2 5 4 2 6 5 2 3 6 4 5 2 5 5 2 4 7 7 6 3 1 9 6 3 4 3 5 6 3 6 6 6 2 5 5 6 8 8 7 8
2 3 4 4 1 3 3 4 6 7 4 4 4 2 2 2 2 2 2 3 4 3 3 8 3 7 8 9 5 5 5 5 5 4 6 6 4 6 7 7 6 7 8 8 8
4 1 2 3 3 2 1 2 3 6 4 7 4 6 3 2 4 4 3 6 3 7 4 3 6 6 6 4 3 6 8 9 7 5 6 4 9 10 10 10 9 9 5 5 6
2 3 4 1 3 3 4 2 2 5 2 5 4 10 5 3 3 3 3 2 6 5 3 2 3 2 5 7 7 3 7 11 5 5 3 2 6 8 4 4 5 8 6 7 7
5 3 2 2 3 2 0 3 2 5 3 3 3 4 3 3 5 9 8 9 6 3 3 2 2 3 5 2 7 1 7 8 5 4 7 5 11 5 5 8 10 8 8 9 8
Wind_Direction
14 14 12 10 4 356 345 337 333 330 328 332 332 334 325 314 304 278 245 198 178 148 130 141 169 190 176 251 171 109 65 269 229 170 188 139 320 85 101 136 70 14 140 159 151
13 13 13 13 12 6 355 344 336 332 334 337 333 328 318 316 312 242 239 194 141 175 166 166 175 158 209 236 160 118 123 257 125 172 172 146 103 346 123 148 83 70 80 123 141
7 8 10 11 13 14 7 350 337 336 337 334 329 321 317 329 318 244 219 203 198 180 146 153 157 161 191 219 170 161 194 302 349 170 213 130 97 323 130 243 189 164 147 139 147
1 2 3 4 3 6 6 356 337 332 336 335 318 316 319 353 164 225 270 189 184 175 149 128 143 96 53 44 64 165 30 89 157 158 119 83 345 6 234 204 133 153 156 150 168
357 356 356 358 357 359 360 354 337 326 330 331 303 304 62 352 254 293 328 178 173 164 170 143 142 125 60 105 34 63 164 74 147 134 108 116 133 252 258 222 122 144 166 172 177
355 353 353 355 353 354 353 347 333 318 328 300 217 146 87 245 294 271 121 160 170 165 169 152 196 161 105 70 73 352 54 159 81 161 97 114 297 65 324 132 140 160 182 187 193
354 351 350 349 349 347 347 341 326 297 341 187 182 112 90 226 312 201 153 180 176 185 145 203 198 77 124 89 70 13 280 187 144 141 241 177 323 203 156 145 161 182 185 199 209
354 351 348 347 344 344 346 337 322 236 156 158 151 115 242 240 341 175 170 146 193 192 217 173 124 97 63 117 33 13 15 0 153 141 304 152 254 208 171 158 179 187 192 209 220
351 348 345 343 341 338 342 343 13 143 145 139 109 105 273 294 239 217 199 134 162 191 201 126 94 99 92 86 17 18 264 297 261 186 122 230 266 211 168 186 191 195 205 207 211
349 345 342 340 337 332 340 73 102 95 111 112 68 5 266 224 190 188 206 164 140 140 106 116 59 85 42 77 243 292 248 256 249 176 161 203 260 259 208 213 213 205 204 211 208
348 344 340 337 333 325 325 133 41 33 210 196 186 247 287 306 179 166 157 150 40 60 144 44 87 216 193 201 122 189 201 243 251 182 158 219 243 253 208 198 231 235 214 211 214
348 344 338 337 330 328 135 174 139 138 305 230 241 273 263 318 348 119 146 110 139 151 73 21 246 192 160 160 185 204 49 266 205 144 183 328 259 244 223 221 206 212 201 192 163
349 343 337 341 334 107 297 222 169 342 151 292 187 199 204 149 203 229 137 132 131 116 186 169 231 126 144 154 168 250 192 252 321 90 78 0 288 247 232 205 205 210 190 194 186
347 342 339 341 329 318 266 153 314 210 57 273 258 260 140 145 231 185 159 133 109 191 155 236 265 238 187 201 159 255 207 241 126 269 261 243 278 293 298 238 205 205 185 189 190
344 340 332 329 290 227 158 289 319 127 31 158 184 168 93 153 158 176 174 62 166 174 122 243 206 184 181 210 162 239 133 203 105 359 357 4 358 270 21 277 234 216 199 187 193
341 336 322 298 223 220 274 320 137 45 258 11 134 154 139 200 102 98 116 69 149 155 236 239 277 179 213 179 154 53 72 54 46 47 317 276 177 283 220 218 263 192 205 186 189
340 331 279 186 208 152 352 97 46 133 318 321 237 152 175 164 170 124 159 184 160 120 259 305 241 251 156 108 44 80 65 358 349 353 227 278 151 249 268 253 237 204 190 185 185
341 350 326 191 217 266 161 58 152 245 266 323 6 91 175 159 212 144 132 202 205 96 117 180 300 174 191 195 171 165 154 161 218 208 267 338 239 254 219 308 214 215 170 157 177
344 357 22 5 207 45 77 89 208 211 307 337 330 121 326 241 174 134 188 204 195 166 187 170 269 253 198 153 142 167 157 189 99 14 43 263 293 310 134 47 89 130 154 176 185
341 347 11 7 143 41 76 218 234 222 321 343 330 31 107 252 161 155 192 202 206 185 166 205 295 243 333 107 47 160 156 80 345 140 282 305 287 241 260 214 180 164 193 198 185
359 54 6 114 352 48 135 235 275 246 229 239 229 329 244 268 190 188 211 257 197 166 156 150 135 266 209 179 174 141 147 58 117 121 156 239 269 215 213 200 190 190 195 204 203
354 58 0 318 50 32 110 266 274 284 221 260 207 210 223 213 241 216 217 235 140 158 167 204 158 233 240 274 215 206 170 140 127 225 108 148 274 222 223 230 239 194 193 189 204
42 272 7 51 98 348 309 302 297 340 327 310 265 198 184 220 239 201 212 223 84 165 168 185 215 8 333 353 29 224 158 115 107 91 180 137 261 186 247 236 228 234 199 210 208
49 29 337 43 24 110 14 341 329 328 290 346 288 353 338 340 42 288 267 294 351 75 31 121 161 174 191 201 156 171 166 145 125 123 167 213 251 284 211 208 226 249 255 219 209
27 39 164 340 357 12 245 14 345 347 347 11 24 20 289 356 11 346 320 330 342 349 87 125 218 187 236 209 208 177 175 168 179 182 166 264 202 231 220 209 212 224 260 250 199
57 32 354 320 304 355 356 28 19 327 288 335 35 318 11 83 21 294 335 226 236 320 57 12 266 280 223 181 161 285 215 174 190 176 241 213 263 221 270 141 205 218 208 230 207
18 21 105 314 348 23 303 315 6 347 280 116 330 330 287 355 287 250 238 277 261 299 296 58 92 70 254 320 110 254 209 202 179 178 152 177 232 164 207 223 229 209 195 208 204
Height
790 787 784 782 780 778 777 776 774 773 772 772 771 770 769 768 768 767 765 762 763 766 767 769 771 772 774 774 773 776 803 810 798 802 791 784 785 774 772 781 783 784 786 787 793
790 787 785 782 780 777 776 774 773 772 771 771 770 769 768 767 766 764 757 759 762 764 766 768 771 772 777 775 775 785 805 795 785 787 788 784 784 780 783 785 789 789 788 789 794
790 788 785 782 780 777 775 773 772 771 770 769 769 768 767 766 766 755 752 756 760 763 765 767 768 770 777 774 777 782 795 783 785 783 779 781 781 778 784 791 785 791 792 793 797
790 787 785 782 779 777 775 772 771 770 769 769 768 767 767 767 778 751 752 753 758 762 765 765 768 773 780 782 774 786 782 781 784 782 782 785 781 786 782 781 777 783 788 792 796
790 787 784 781 779 776 774 772 770 769 768 767 767 767 767 768 760 751 750 752 757 761 763 765 769 773 782 780 779 785 783 783 782 782 783 781 785 786 782 775 779 785 788 791 794
789 786 783 781 778 775 773 770 768 767 767 767 767 767 768 772 752 752 751 752 756 760 763 765 766 767 778 783 785 783 785 785 783 783 782 785 785 784 778 774 782 785 788 792 794
789 785 782 779 777 774 771 768 766 766 766 766 766 767 768 760 752 752 754 755 757 759 763 763 763 767 775 786 781 786 792 784 785 785 786 783 791 789 777 776 782 786 788 790 793
787 784 781 778 775 772 770 766 764 764 765 765 766 767 767 752 751 752 754 756 758 761 762 763 765 771 779 782 789 795 795 802 786 786 784 789 803 783 777 780 785 785 787 789 790
786 782 779 776 772 769 767 765 763 764 765 766 768 767 763 751 751 751 753 755 758 761 762 764 766 779 782 796 807 805 811 806 793 782 787 795 799 782 777 781 783 785 786 786 787
785 781 777 773 770 767 765 764 765 765 767 768 769 771 753 751 747 748 751 755 757 760 764 767 779 794 801 807 826 808 810 802 800 787 786 796 798 787 780 781 782 782 782 784 784
782 778 775 770 766 763 763 765 770 770 767 757 754 755 749 746 746 747 750 754 757 763 780 776 793 803 799 794 791 795 801 797 785 776 787 793 794 785 781 780 781 780 780 779 780
780 776 771 767 762 759 759 761 759 761 767 748 751 751 747 746 752 748 750 760 766 780 775 787 798 783 781 787 788 792 797 796 785 778 787 790 788 779 775 775 773 773 776 777 781
777 772 767 764 760 759 759 756 757 757 768 752 747 746 744 745 753 751 749 758 770 781 783 796 783 777 780 791 795 793 800 794 792 786 790 792 794 781 769 766 765 767 768 771 775
775 769 764 761 762 759 756 755 756 755 783 761 751 741 740 741 750 741 744 755 768 782 787 787 772 774 783 788 789 805 780 780 790 797 809 792 819 786 776 772 766 764 766 769 771
771 765 761 759 758 757 754 753 753 755 804 749 747 734 738 747 744 747 742 751 774 775 782 784 773 778 785 781 777 785 771 782 788 800 805 808 814 782 778 778 771 762 761 763 765
765 759 755 755 755 751 752 751 754 789 802 754 741 748 751 746 745 746 748 747 755 769 771 774 759 766 766 763 768 766 784 798 808 815 829 808 807 795 783 771 760 758 757 759 762
757 751 748 750 749 749 750 752 790 805 756 760 751 748 751 756 753 752 762 769 781 797 793 775 770 758 754 770 771 781 802 838 834 836 830 812 811 790 763 756 753 755 754 754 758
752 746 744 746 746 749 750 767 795 775 770 748 748 750 760 755 755 758 768 778 768 780 801 800 797 766 752 759 777 791 800 832 834 840 824 804 812 781 751 749 746 745 748 752 757
748 746 746 747 747 749 756 792 788 778 758 759 753 758 761 750 753 760 770 775 766 769 791 804 789 749 746 747 753 785 799 784 819 824 827 814 791 763 750 754 752 751 750 751 754
749 748 749 747 748 750 770 786 775 763 754 754 767 758 767 760 762 768 772 752 757 755 754 771 789 752 745 743 752 763 769 800 815 816 825 817 807 795 760 759 757 755 752 751 751
752 753 754 751 751 759 784 783 769 757 754 757 761 764 764 760 761 766 760 746 740 747 752 765 774 763 748 757 768 773 780 795 804 815 827 830 804 766 758 750 751 751 749 748 749
760 767 756 755 769 787 781 771 759 754 748 753 752 756 761 754 755 760 760 748 731 742 760 755 773 784 769 748 747 754 765 779 807 806 824 820 803 747 747 744 741 744 745 743 742
775 775 758 756 784 787 778 770 761 759 755 752 753 751 749 753 759 751 743 724 727 738 750 751 773 790 777 765 749 756 762 776 790 801 816 817 799 752 747 742 739 740 738 737 738
777 777 771 769 780 780 783 779 773 758 758 755 751 745 748 752 752 752 745 729 726 730 733 737 770 767 781 764 756 761 759 768 775 798 802 801 774 751 746 745 741 737 733 734 735
783 791 791 791 785 785 782 780 777 777 762 760 756 759 763 763 762 761 749 749 732 736 736 744 760 760 751 746 746 745 753 761 769 768 773 766 776 750 742 738 736 735 734 735 735
791 794 792 792 791 784 788 784 779 778 772 769 770 765 760 764 766 767 758 753 759 740 741 750 758 753 748 740 743 748 746 751 753 761 756 757 766 742 733 731 733 733 735 738 735
794 794 794 795 792 789 791 786 780 779 769 765 768 769 763 762 760 758 757 752 750 748 750 751 757 770 766 746 744 760 745 747 741 741 744 762 741 733 734 734 731 732 734 734 731